Location: Asheville, NC
(35.6000°N, 82.5500°W)
Time: 16:59:50
(UTC-04:00)

XW-2D - Pass Details

Date: 11 February 2018
Orbit: 509 x 530 km, 97.5° (Epoch: 20 June)

Event Time Altitude Azimuth Distance (km) Brightness Sun altitude
Rises 19:01:26 0° 216° (SW) 2,629 ? -11.4°
Drops below altitude 10° 19:05:07 - 255° (WSW) 1,785 ? -12.1°
Maximum altitude 19:06:00 10° 268° (W) 1,744 ? -12.3°
Sets 19:10:35 0° 320° (NW) 2,631 ? -13.2°
